Location: Atlantic Beach
(40.5890°N, 73.7290°W)
Time: 04:17:51
(UTC+00:00)

Cosmos 1758 Rocket - Pass Details

Date: 29 October 2020
Orbit: 601 x 637 km, 82.5° (Epoch: 23 November)

Event Time Altitude Azimuth Distance (km) Brightness Sun altitude
Rises 22:20:37 0° 348° (NNW) 2,898 7.0 -5.6°
Reaches altitude 10° 22:22:53 10° 344° (NNW) 1,982 6.2 -6.0°
Maximum altitude 22:27:11 59° 266° (W) 710 4.3 -6.8°
Drops below altitude 10° 22:31:25 10° 187° (S) 1,948 6.4 -7.6°
Sets 22:33:38 0° 183° (S) 2,843 7.2 -8.0°
